[[{"header":{"parameterUnit":"m.s-1","parameterCategory":1,"la1":30.2991,"la2":30.254,"lo1":-89.0895,"lo2":-89.0444,"dy":0.0017,"dx":0.0017,"nx":28,"ny":28,"refTime":"2023-10-17T09:00:00:Z","depth":0,"parameterNumber":2,"parameterNumberName":"U-component_of_WINDS"},"data":[0,0,0,0,0,0,0,0,0,0,0,0,0,0,0,0,0,0,0,0,0,0,0,0,0,0,0,0,0,0,0,0,0,0,0,0,0,0,0,0,0,0,0,0,0,0,0,0,0,0,0,0,0,0,0,0,0,0,-1.6217,-1.6218,0,-1.6316,-1.6317,-1.6318,-1.6339,-1.6338,-1.6337,-1.6337,-1.644,-1.6444,-1.6447,0,0,0,0,0,0,0,0,0,0,0,0,0,-1.6046,-1.6049,-1.6217,-1.6218,-1.6219,-1.6316,-1.6317,-1.6319,-1.6339,-1.6338,-1.6337,-1.6336,-1.6439,-1.6443,-1.6447,0,0,0,0,0,0,0,0,0,0,0,0,0,-1.613,-1.605,-1.6216,-1.6241,-1.6244,-1.6316,-1.6317,-1.6319,-1.6339,-1.6338,-1.6337,-1.6336,-1.6438,-1.6443,-1.6448,-1.6503,0,0,-1.6464,-1.6466,0,0,0,0,0,0,0,0,-1.6126,-1.6137,-1.6236,-1.6239,-1.6243,-1.6314,-1.6295,-1.6381,-1.634,-1.6303,-1.6337,-1.6335,-1.6399,-1.6408,-1.6429,-1.6508,-1.6512,-1.6464,-1.6467,-1.647,-1.6471,0,0,0,0,0,0,0,-1.612,-1.6133,-1.6256,-1.6237,-1.6242,-1.6248,-1.6258,-1.6312,-1.6356,-1.6306,-1.6308,-1.6319,-1.6401,-1.6424,-1.6431,-1.6514,-1.6464,-1.6469,-1.6472,-1.6474,-1.6643,-1.6644,0,0,0,0,0,0,-1.6109,-1.6128,-1.6253,-1.6259,-1.618,-1.6252,-1.6264,-1.6292,-1.6356,-1.6364,-1.632,-1.632,-1.6415,-1.6425,-1.6435,-1.6503,-1.647,-1.6474,-1.6477,-1.6642,-1.6643,-1.6645,0,0,0,0,0,0,-1.6106,-1.612,-1.6249,-1.6194,-1.6211,-1.6256,-1.6288,-1.6295,-1.6318,-1.6366,-1.6375,-1.6335,-1.6415,-1.6428,-1.6486,-1.6507,-1.6477,-1.6482,-1.664,-1.6642,-1.6644,-1.664,0,0,0,0,0,0,-1.6101,-1.6119,-1.614,-1.6194,-1.6213,-1.6297,-1.6289,-1.6298,-1.6326,-1.6327,-1.6383,-1.6391,-1.6415,-1.6478,-1.6491,-1.6514,-1.6486,-1.6638,-1.6641,-1.6643,-1.6639,-1.6642,-1.6645,0,0,0,0,0,-1.6094,-1.6135,-1.6141,-1.6156,-1.624,-1.6298,-1.631,-1.6336,-1.6328,-1.635,-1.6381,-1.6389,-1.6503,-1.6484,-1.6499,-1.6523,-1.6637,-1.664,-1.6643,-1.6637,-1.6642,-1.6645,0,0,0,0,0,0,-1.6082,-1.6143,-1.6149,-1.6209,-1.6248,-1.6302,-1.633,-1.634,-1.6383,-1.6381,-1.6413,-1.6426,-1.6482,-1.6509,-1.6486,-1.658,-1.657,-1.6576,-1.656,-1.6565,-1.6568,-1.656,-1.649,0,0,0,0,0,-1.6087,-1.6128,-1.6179,-1.6226,-1.6246,-1.6284,-1.6311,-1.6328,-1.637,-1.6387,-1.6423,-1.6464,-1.651,-1.6539,-1.6583,-1.6643,-1.6656,-1.6668,-1.6671,-1.6673,-1.6678,-1.6712,-1.6718,-1.6655,-1.6655,-1.6655,0,0,-1.6096,-1.6134,-1.6158,-1.6225,-1.6257,-1.63,-1.6298,-1.6344,-1.6376,-1.6394,-1.6451,-1.6479,-1.6527,-1.6586,-1.6614,-1.6611,-1.6698,-1.6677,-1.6678,-1.6682,-1.6716,-1.6722,-1.6727,-1.6657,-1.6657,-1.6656,0,0,-1.6134,-1.6167,-1.621,-1.6243,-1.6292,-1.6318,-1.6328,-1.638,-1.6399,-1.6457,-1.6471,-1.6511,-1.6588,-1.6622,-1.6649,-1.6701,-1.671,-1.6715,-1.673,-1.6763,-1.6768,-1.6773,-1.6791,-1.6797,-1.6719,-1.6719,-1.6719,0,-1.6139,-1.6204,-1.6231,-1.6276,-1.6305,-1.6323,-1.6367,-1.6398,-1.646,-1.648,-1.6474,-1.6572,-1.6606,-1.6673,-1.6686,-1.6707,-1.6721,-1.6708,-1.6765,-1.677,-1.6775,-1.6793,-1.6799,-1.672,-1.672,-1.672,-1.672,0,-1.6208,-1.6253,-1.6282,-1.634,-1.6372,-1.6417,-1.6451,-1.6481,-1.6495,-1.6522,-1.658,-1.6622,-1.6675,-1.6692,-1.6707,-1.6762,-1.6758,-1.6759,-1.6749,-1.678,-1.6798,-1.6805,-1.672,-1.672,-1.672,-1.672,0,0,-1.6241,-1.6314,-1.6324,-1.6351,-1.6407,-1.6442,-1.6488,-1.6539,-1.6564,-1.6606,-1.6645,-1.671,-1.6711,-1.6742,-1.6761,-1.679,-1.6828,-1.6787,-1.6789,-1.6793,-1.6892,-1.689,-1.6898,-1.6835,-1.6836,-1.6838,-1.6888,0,-1.6286,-1.6367,-1.6393,-1.6461,-1.6502,-1.652,-1.656,-1.6599,-1.6625,-1.6665,-1.6694,-1.6739,-1.6737,-1.6756,-1.6786,-1.6817,-1.6849,-1.6814,-1.6872,-1.6874,-1.6858,-1.6907,-1.6906,-1.6951,-1.6895,-1.6896,-1.6897,0,-1.635,-1.6392,-1.6463,-1.6514,-1.6532,-1.6567,-1.6617,-1.6654,-1.6699,-1.6716,-1.6751,-1.6768,-1.6817,-1.6804,-1.6872,-1.6848,-1.6874,-1.6893,-1.6895,-1.6901,-1.6886,-1.6914,-1.6966,-1.6973,-1.6908,-1.6907,-1.6906,0,-1.6366,-1.6441,-1.6494,-1.6516,-1.6576,-1.6601,-1.6627,-1.6671,-1.67,-1.6744,-1.6763,-1.6812,-1.6838,-1.6876,-1.6906,-1.6894,-1.6971,-1.6962,-1.6987,-1.6986,-1.7002,-1.7001,-1.7058,-1.7019,-1.7019,-1.7019,-1.7019,0,-1.6414,-1.6457,-1.6502,-1.6534,-1.6583,-1.6613,-1.6661,-1.6688,-1.6727,-1.6766,-1.6785,-1.6821,-1.6858,-1.6899,-1.6923,-1.6975,-1.6987,-1.7003,-1.7008,-1.7001,-1.6999,-1.7017,-1.7015,-1.7021,-1.702,-1.702,-1.702,0,-1.6441,-1.6473,-1.6531,-1.6583,-1.6597,-1.6631,-1.6676,-1.6709,-1.6735,-1.6784,-1.6797,-1.6839,-1.6888,-1.6922,-1.6985,-1.7001,-1.7058,-1.7064,-1.7043,-1.7045,-1.7069,-1.7066,-1.714,-1.7152,-1.7105,-1.7105,-1.7106,0,-1.6469,-1.6502,-1.6558,-1.6584,-1.661,-1.6653,-1.6683,-1.6714,-1.6745,-1.6798,-1.6824,-1.6875,-1.6916,-1.6994,-1.7031,-1.708,-1.7086,-1.7109,-1.7094,-1.7085,-1.7086,-1.7084,-1.7087,-1.7111,-1.7112,-1.7112,-1.7112,0,-1.6515,-1.6529,-1.6571,-1.6618,-1.6653,-1.6692,-1.6731,-1.6752,-1.679,-1.6823,-1.6873,-1.6906,-1.697,-1.702,-1.7072,-1.71,-1.7113,-1.7117,-1.7125,-1.7117,-1.7104,-1.7111,-1.7049,-1.7115,-1.7114,-1.7114,-1.7114,-1.7114,-1.6543,-1.6574,-1.6617,-1.6663,-1.6696,-1.6732,-1.6765,-1.6795,-1.6837,-1.6891,-1.6908,-1.696,-1.7004,-1.7075,-1.7104,-1.7146,-1.7144,-1.7157,-1.716,-1.7162,-1.7162,-1.7097,-1.7156,-1.7156,-1.7156,-1.7156,-1.7156,0,-1.659,-1.6619,-1.6661,-1.6715,-1.6751,-1.6759,-1.6803,-1.6833,-1.6878,-1.6918,-1.6959,-1.7016,-1.7065,-1.7105,-1.7156,-1.7181,-1.7188,-1.7194,-1.7192,-1.7198,-1.7161,-1.7148,-1.7187,-1.7187,-1.7187,-1.7187,-1.7187,-1.7187,-1.6619,-1.6671,-1.669,-1.6758,-1.6787,-1.6838,-1.6862,-1.6896,-1.6928,-1.6991,-1.7031,-1.7057,-1.7097,-1.7151,-1.7196,-1.7207,-1.7224,-1.7228,-1.724,-1.7204,-1.7201,-1.7197,-1.7186,-1.7232,-1.7232,-1.7274,-1.7274,-1.7275]},{"header":{"parameterUnit":"m.s-1","parameterCategory":1,"la1":30.2991,"la2":30.254,"lo1":-89.0895,"lo2":-89.0444,"dy":0.0017,"dx":0.0017,"nx":28,"ny":28,"refTime":"2023-10-17T09:00:00:Z","depth":0,"parameterNumber":3,"parameterNumberName":"V-component_of_WINDS"},"data":[0,0,0,0,0,0,0,0,0,0,0,0,0,0,0,0,0,0,0,0,0,0,0,0,0,0,0,0,0,0,0,0,0,0,0,0,0,0,0,0,0,0,0,0,0,0,0,0,0,0,0,0,0,0,0,0,0,0,3.2727,3.2727,0,3.274,3.274,3.2741,3.2686,3.2684,3.2682,3.2681,3.2693,3.2695,3.2696,0,0,0,0,0,0,0,0,0,0,0,0,0,3.2652,3.2654,3.2727,3.2727,3.2727,3.274,3.274,3.2741,3.2686,3.2684,3.2682,3.268,3.2692,3.2694,3.2697,0,0,0,0,0,0,0,0,0,0,0,0,0,3.2677,3.2654,3.2727,3.2702,3.27,3.274,3.274,3.2741,3.2686,3.2684,3.2682,3.2679,3.2691,3.2694,3.2697,3.2762,0,0,3.2705,3.2706,0,0,0,0,0,0,0,0,3.2675,3.268,3.2705,3.2703,3.2701,3.2709,3.2718,3.2748,3.2687,3.2691,3.2681,3.2678,3.27,3.2702,3.271,3.2762,3.2763,3.2705,3.2707,3.2708,3.2709,0,0,0,0,0,0,0,3.2674,3.2679,3.2732,3.2706,3.2703,3.2689,3.269,3.2724,3.2709,3.2691,3.2687,3.2689,3.2698,3.2707,3.2709,3.2763,3.2705,3.2708,3.2709,3.271,3.2868,3.2871,0,0,0,0,0,0,3.2676,3.2678,3.2732,3.2733,3.2682,3.2692,3.2693,3.2709,3.2708,3.2706,3.2691,3.2687,3.2704,3.2706,3.271,3.2784,3.2708,3.2711,3.2712,3.2866,3.2869,3.2872,0,0,0,0,0,0,3.2674,3.2681,3.2731,3.2704,3.2709,3.2696,3.2714,3.271,3.2719,3.2709,3.2706,3.2703,3.2702,3.2706,3.2749,3.2784,3.2712,3.2714,3.2863,3.2867,3.287,3.2935,0,0,0,0,0,0,3.2672,3.2681,3.2706,3.2705,3.2711,3.2771,3.2716,3.2712,3.2724,3.2718,3.2719,3.2717,3.27,3.2745,3.2752,3.2786,3.2717,3.2859,3.2864,3.2869,3.2929,3.294,3.295,0,0,0,0,0,3.267,3.2724,3.2708,3.2714,3.2742,3.2773,3.2777,3.2757,3.2727,3.2752,3.2745,3.2717,3.278,3.275,3.2757,3.2793,3.2857,3.2863,3.2869,3.2925,3.2938,3.2949,0,0,0,0,0,0,3.2729,3.2723,3.2705,3.2761,3.2768,3.2764,3.2794,3.2772,3.2787,3.2781,3.2756,3.2756,3.2803,3.2803,3.277,3.2855,3.2813,3.282,3.2853,3.2866,3.2876,3.2874,3.2719,0,0,0,0,0,3.2748,3.2775,3.2768,3.2817,3.2822,3.2808,3.2821,3.2805,3.2811,3.2814,3.281,3.2817,3.2838,3.2852,3.2871,3.293,3.2928,3.2958,3.2968,3.2976,3.2982,3.3011,3.3024,3.289,3.289,3.289,0,0,3.2789,3.2789,3.2807,3.2829,3.2833,3.286,3.2811,3.2842,3.2861,3.2818,3.2858,3.2856,3.2862,3.2913,3.2935,3.2914,3.3019,3.2984,3.299,3.2992,3.3019,3.3031,3.3043,3.2894,3.2894,3.2893,0,0,3.2875,3.2879,3.292,3.2924,3.2931,3.2921,3.2931,3.2931,3.2927,3.2968,3.2936,3.2958,3.2996,3.3,3.3008,3.3096,3.307,3.3103,3.3155,3.3184,3.3194,3.3204,3.3233,3.3244,3.311,3.311,3.311,0,3.2924,3.2964,3.2943,3.2976,3.2986,3.2949,3.2989,3.2995,3.3007,3.3015,3.2991,3.3036,3.3038,3.3088,3.3109,3.3117,3.3127,3.3102,3.3195,3.3204,3.3212,3.324,3.3251,3.3114,3.3113,3.3113,3.3112,0,3.3023,3.3051,3.3083,3.3095,3.3109,3.3146,3.3129,3.3146,3.3129,3.3122,3.3162,3.3163,3.318,3.3192,3.3176,3.324,3.3226,3.3199,3.3156,3.3229,3.3254,3.3265,3.3119,3.3118,3.3117,3.3116,0,0,3.3146,3.3147,3.3158,3.3163,3.3168,3.3188,3.3223,3.324,3.3254,3.3264,3.3291,3.3323,3.3298,3.3306,3.3291,3.3316,3.3384,3.3286,3.3286,3.3302,3.3452,3.3471,3.3484,3.3368,3.337,3.3371,3.3451,0,3.3229,3.3288,3.327,3.3328,3.3353,3.3319,3.3348,3.3354,3.3348,3.3367,3.336,3.3383,3.3349,3.3354,3.3378,3.3371,3.3413,3.3365,3.3391,3.3392,3.3388,3.3498,3.3518,3.3593,3.3461,3.3463,3.3464,0,3.3334,3.3347,3.3409,3.3408,3.3417,3.3445,3.3458,3.3478,3.3483,3.3477,3.3487,3.3465,3.3498,3.3456,3.35,3.3467,3.3477,3.3475,3.3478,3.3478,3.3431,3.3499,3.3617,3.3628,3.348,3.3479,3.3478,0,3.3415,3.3449,3.3489,3.3495,3.3495,3.3515,3.3516,3.3519,3.353,3.3543,3.3549,3.3566,3.3574,3.3587,3.357,3.3542,3.3615,3.3573,3.361,3.361,3.3625,3.3624,3.3745,3.3635,3.3635,3.3635,3.3635,0,3.3508,3.3547,3.3525,3.355,3.3592,3.3571,3.3612,3.3609,3.3612,3.3635,3.3607,3.3629,3.3607,3.3626,3.3614,3.3651,3.3655,3.365,3.3646,3.3651,3.3652,3.3656,3.3649,3.3638,3.3637,3.3637,3.3636,0,3.3605,3.3593,3.3634,3.3631,3.3632,3.3662,3.3659,3.3681,3.3674,3.3703,3.3708,3.3696,3.3718,3.3703,3.3725,3.3716,3.3764,3.3754,3.3762,3.3759,3.3795,3.3791,3.3921,3.3937,3.3819,3.382,3.3821,0,3.3665,3.3693,3.3693,3.3707,3.371,3.3732,3.3743,3.3724,3.3737,3.3744,3.3765,3.3785,3.3799,3.3835,3.3827,3.3844,3.3832,3.3877,3.3834,3.3839,3.383,3.3828,3.383,3.3884,3.3886,3.3887,3.3888,0,3.3771,3.3763,3.3781,3.3796,3.3811,3.3822,3.3831,3.3843,3.3824,3.384,3.3861,3.3873,3.3895,3.3914,3.3927,3.3927,3.3904,3.3902,3.3911,3.3916,3.3919,3.3915,3.3783,3.3898,3.3897,3.3896,3.3896,3.3895,3.3849,3.3872,3.3876,3.3896,3.3901,3.391,3.393,3.3925,3.3943,3.3959,3.3947,3.3972,3.3976,3.3991,3.3995,3.4014,3.3996,3.4009,3.4012,3.4015,3.402,3.3917,3.4017,3.4016,3.4016,3.4016,3.4016,0,3.3952,3.3953,3.3972,3.3985,3.4001,3.3979,3.3987,3.4001,3.4024,3.403,3.4045,3.4069,3.4087,3.4082,3.4097,3.4114,3.4104,3.4119,3.4116,3.4116,3.4036,3.4026,3.4127,3.4127,3.4127,3.4127,3.4127,3.4127,3.4008,3.4045,3.4038,3.4077,3.4077,3.4102,3.4108,3.4116,3.412,3.4149,3.4164,3.416,3.4161,3.4176,3.4192,3.419,3.4196,3.4215,3.4208,3.4133,3.4122,3.4112,3.4102,3.4217,3.4217,3.4286,3.4287,3.4288]}]]